Location: Newark
(40.9833°N, 0.0333°W)
Time: 16:21:57
(UTC+00:00)

deb Explorer IX - Pass Details

Date: 28 October 2020
Orbit: 538 x 1104 km, 38.8° (Epoch: 22 November)

Event Time Altitude Azimuth Distance (km) Brightness Sun altitude
Rises 03:25:34 0° 192° (SSW) 3,189 - -34.6°
Reaches altitude 10° 03:29:13 10° 166° (SSE) 2,401 - -33.9°
Exits shadow 03:30:22 12° 154° (SSE) 2,283 ? -33.7°
Maximum altitude 03:31:53 13° 138° (SE) 2,258 ? -33.4°
Drops below altitude 10° 03:34:43 10° 110° (ESE) 2,596 ? -32.9°
Sets 03:38:58 0° 86° (E) 3,675 ? -32.1°
